Regional Weather Roundup
Issued by NWS Sioux Falls, SD

Home | Current Version | Previous Version | Graphics & Text | Print | Product List | Glossary On
Versions: 1 2 3 4 5 6 7 8 9 10 11 12 13 14 15 16 17 18 19 20 21 22 23 24 25 26 27 28 29 30 31 32 33 34 35 36 37 38 39 40 41 42 43 44 45 46 47 48 49 50
000
ASUS43 KFSD 201702
RWRFSD

WEATHER ROUNDUP FOR SE SOUTH DAKOTA/SW MINNESOTA/NW IOWA
NATIONAL WEATHER SERVICE SIOUX FALLS SD
1100 AM CST FRI JAN 20 2017

NOTE: "FAIR" INDICATES FEW OR NO CLOUDS BELOW 12,000 FEET WITH NO
SIGNIFICANT WEATHER AND OR OBSTRUCTIONS TO VISIBILITY.


SDZ038>040-050-052>070-201800-
SOUTHEAST SOUTH DAKOTA

CITY           SKY/WX    TMP DP  RH WIND       PRES   REMARKS
BROOKINGS      CLOUDY    36  35  96 SE17      29.47F FOG
CHAMBERLAIN    CLOUDY    30  30 100 W5        29.39F FOG     WCI  25
HURON          CLOUDY    37  37 100 SE12      29.41F
MADISON        CLOUDY    37  37 100 S12G18      N/A
MITCHELL       CLOUDY    38  36  92 S15G24    29.44S
SIOUX FALLS    CLOUDY    40  39  97 SE16G23   29.50S
WINNER         FAIR      37  26  64 W10       29.38F
YANKTON        CLOUDY    43  37  81 SE14      29.48S
$$

MNZ071-072-080-081-089-090-097-098-201800-
SOUTHWEST MINNESOTA

CITY           SKY/WX    TMP DP  RH WIND       PRES   REMARKS
FAIRMONT       CLOUDY    35  34  96 S10       29.60R FOG     WCI  27
JACKSON        FOG       34  34 100 S9        29.58S VSB 1/2 WCI  26
LUVERNE        DRIZZLE   36  34  93 SE9       29.53F
MARSHALL       CLOUDY    37  35  92 S12       29.54F FOG
MONTEVIDEO     CLOUDY    34  34 100 S6        29.57R FOG     WCI  29
PIPESTONE      FOG       36  36 100 SE12      29.50F VSB 1/4
REDWOOD FALLS  FOG       35  33  92 S10       29.57R VSB 1   WCI  27
TRACY          DRIZZLE   37  37 100 S9        29.55F
WINDOM         FOG       36  36 100 SE7       29.57S VSB 1/2
WORTHINGTON    MIX PCPN  35  34  96 S8        29.56S FOG     WCI  29
$$

IAZ001>003-012>014-020>022-031-032-NEZ013-014-SDZ071-201800-
NORTHWEST IOWA

CITY           SKY/WX    TMP DP  RH WIND       PRES   REMARKS
CHEROKEE       CLOUDY    37  37 100 S6        29.56F FOG
DENISON        FOG       39  39 100 SE7       29.54F VSB 1
ESTHERVILLE    FOG       34  34 100 S9        29.58R VSB 3/4 WCI  27
LE MARS        CLOUDY    39  39 100 S6        29.55F FOG
ORANGE CITY    DRZL/FOG  37  37 100 SE5       29.54F VSB 1
SHELDON        PTSUNNY   37  37 100 SE12      29.53F FOG
SIOUX CITY     CLOUDY    40  39  97 SE9       29.54F FOG
SPENCER        FOG       36  36 100 S9        29.57F VSB 3/4
STORM LAKE     FOG       37  36  93 SE7       29.56F VSB<1/4
$$

ABBREVIATIONS USED IN REMARKS
   TC - TEMPERATURE IN CELSIUS
  WCI - WIND CHILL INDEX
   HX - HEAT INDEX
  VSB - VISIBILITY




USA.gov is the U.S. government's official web portal to all federal, state and local government web resources and services.